PLF038 LRCV-EPWA

Flight info

Callsign PLF038
Flight time 2h 16m
Altitude 18000
Route TITEK DCT DVA DCT BADOR DCT ROMKA DCT LENOV DCT LOGDA
Aircraft C295/M-SDFGIRY/S

Departure

Time 2026-04-23 13:53
Airport Craiova International Airport (LRCV)

Arrival

Time 2026-04-23 16:09
Airport Warsaw Chopin Airport (EPWA)
Time Latitude Longitude Altitude Speed Heading
2026-04-23 13:36 44.31343 23.87818 630 ft 0 kts 108°
2026-04-23 13:44 44.31343 23.87820 629 ft 2 kts 107°
2026-04-23 13:44 44.31347 23.87827 629 ft 2 kts 54°
2026-04-23 13:45 44.31353 23.87831 661 ft 2 kts 29°
2026-04-23 13:45 44.31376 23.87841 624 ft 3 kts
2026-04-23 13:45 44.31397 23.87845 634 ft 3 kts
2026-04-23 13:45 44.31414 23.87845 629 ft 2 kts 358°
2026-04-23 13:46 44.31472 23.87841 629 ft 14 kts 357°
2026-04-23 13:46 44.31593 23.87838 634 ft 17 kts 359°
2026-04-23 13:46 44.31692 23.87837 631 ft 12 kts 358°
2026-04-23 13:46 44.31758 23.87834 635 ft 8 kts
2026-04-23 13:47 44.31798 23.87857 637 ft 6 kts 64°
2026-04-23 13:47 44.31801 23.87979 629 ft 18 kts 91°
2026-04-23 13:47 44.31807 23.88194 627 ft 24 kts 86°
2026-04-23 13:47 44.31810 23.88446 625 ft 28 kts 88°
2026-04-23 13:48 44.31794 23.88727 635 ft 30 kts 101°
2026-04-23 13:48 44.31800 23.88991 630 ft 27 kts 82°
2026-04-23 13:48 44.31796 23.89262 632 ft 28 kts 84°
2026-04-23 13:48 44.31815 23.89541 624 ft 30 kts 86°
2026-04-23 13:49 44.31826 23.89834 632 ft 31 kts 85°
2026-04-23 13:49 44.31832 23.90141 619 ft 32 kts 88°
2026-04-23 13:49 44.31819 23.90402 618 ft 9 kts 65°
2026-04-23 13:49 44.31828 23.90396 624 ft 1 kts 320°
2026-04-23 13:50 44.31837 23.90366 620 ft 0 kts 265°
2026-04-23 13:52 44.31835 23.90320 618 ft 24 kts 267°
2026-04-23 13:52 44.31835 23.89820 627 ft 76 kts 267°
2026-04-23 13:52 44.31811 23.88876 625 ft 119 kts 269°
2026-04-23 13:52 44.31750 23.87652 919 ft 124 kts 265°
2026-04-23 13:53 44.31652 23.86411 1278 ft 135 kts 269°
2026-04-23 13:53 44.31597 23.85067 1718 ft 143 kts 270°
2026-04-23 13:53 44.31563 23.83690 2252 ft 136 kts 274°
2026-04-23 13:53 44.31554 23.82358 2582 ft 143 kts 274°
2026-04-23 13:54 44.31570 23.80935 2956 ft 150 kts 275°
2026-04-23 13:54 44.31582 23.79398 3226 ft 163 kts 273°
2026-04-23 13:54 44.31574 23.77807 3601 ft 165 kts 274°
2026-04-23 13:54 44.31582 23.76214 4020 ft 163 kts 275°
2026-04-23 13:55 44.31593 23.74631 4431 ft 164 kts 274°
2026-04-23 13:55 44.31595 23.73031 4783 ft 166 kts 274°
2026-04-23 13:55 44.31705 23.71453 5130 ft 163 kts 297°
2026-04-23 13:55 44.32565 23.70484 5457 ft 166 kts 336°
2026-04-23 13:56 44.33648 23.69912 5837 ft 167 kts 335°
2026-04-23 13:56 44.34727 23.69303 6216 ft 167 kts 334°
2026-04-23 13:56 44.35797 23.68651 6604 ft 168 kts 332°
2026-04-23 13:56 44.36837 23.67942 6973 ft 169 kts 330°
2026-04-23 13:57 44.37876 23.67169 7335 ft 169 kts 329°
2026-04-23 13:57 44.38906 23.66353 7648 ft 170 kts 328°
2026-04-23 13:57 44.39932 23.65516 7984 ft 171 kts 328°
2026-04-23 13:57 44.40624 23.64941 8220 ft 171 kts 328°
2026-04-23 13:58 44.41987 23.63797 8636 ft 173 kts 328°
2026-04-23 13:58 44.43017 23.62920 9016 ft 174 kts 328°
2026-04-23 13:58 44.43705 23.62328 9242 ft 175 kts 328°
2026-04-23 13:58 44.44746 23.61426 9566 ft 177 kts 328°
2026-04-23 13:59 44.45791 23.60507 9898 ft 177 kts 328°
2026-04-23 13:59 44.46833 23.59577 10209 ft 178 kts 327°
2026-04-23 13:59 44.47879 23.58628 10506 ft 179 kts 328°
2026-04-23 13:59 44.48936 23.57685 10790 ft 180 kts 329°
2026-04-23 14:00 44.50079 23.56939 11046 ft 182 kts 340°
2026-04-23 14:00 44.51280 23.56390 11355 ft 182 kts 343°
2026-04-23 14:00 44.52498 23.55891 11655 ft 182 kts 344°
2026-04-23 14:00 44.53703 23.55385 11936 ft 183 kts 343°
2026-04-23 14:01 44.54923 23.54854 12215 ft 184 kts 343°
2026-04-23 14:01 44.56149 23.54317 12489 ft 185 kts 343°
2026-04-23 14:01 44.57381 23.53771 12764 ft 186 kts 343°
2026-04-23 14:01 44.58618 23.53222 13028 ft 187 kts 343°
2026-04-23 14:02 44.59862 23.52666 13298 ft 188 kts 344°
2026-04-23 14:02 44.61112 23.52112 13575 ft 189 kts 344°
2026-04-23 14:02 44.62367 23.51557 13810 ft 189 kts 344°
2026-04-23 14:02 44.63613 23.51003 14034 ft 190 kts 344°
2026-04-23 14:03 44.64875 23.50441 14259 ft 190 kts 345°
2026-04-23 14:03 44.66139 23.49874 14485 ft 191 kts 345°
2026-04-23 14:03 44.67407 23.49312 14710 ft 191 kts 345°
2026-04-23 14:03 44.68678 23.48746 14935 ft 192 kts 345°
2026-04-23 14:04 44.69951 23.48178 15138 ft 192 kts 345°
2026-04-23 14:04 44.71226 23.47606 15366 ft 193 kts 345°
2026-04-23 14:04 44.72505 23.47034 15581 ft 193 kts 345°
2026-04-23 14:04 44.73790 23.46461 15797 ft 194 kts 346°
2026-04-23 14:05 44.75078 23.45888 15989 ft 195 kts 346°
2026-04-23 14:05 44.76371 23.45309 16175 ft 195 kts 346°
2026-04-23 14:05 44.77666 23.44728 16376 ft 195 kts 346°
2026-04-23 14:05 44.78963 23.44146 16531 ft 196 kts 347°
2026-04-23 14:06 44.80264 23.43566 16701 ft 196 kts 347°
2026-04-23 14:06 44.81566 23.42985 16856 ft 196 kts 347°
2026-04-23 14:06 44.82866 23.42402 17045 ft 196 kts 347°
2026-04-23 14:06 44.84168 23.41818 17222 ft 197 kts 347°
2026-04-23 14:07 44.85473 23.41232 17394 ft 197 kts 347°
2026-04-23 14:07 44.88089 23.40053 17770 ft 197 kts 348°
2026-04-23 14:07 44.89406 23.39464 17868 ft 200 kts 348°
2026-04-23 14:08 44.90739 23.38866 17915 ft 206 kts 348°
2026-04-23 14:08 44.92122 23.38246 17931 ft 211 kts 348°
2026-04-23 14:08 44.93534 23.37611 17939 ft 215 kts 348°
2026-04-23 14:08 44.94976 23.36966 17938 ft 219 kts 347°
2026-04-23 14:09 44.96440 23.36308 17952 ft 222 kts 347°
2026-04-23 14:09 44.97923 23.35641 17953 ft 225 kts 347°
2026-04-23 14:09 44.99428 23.34964 17951 ft 228 kts 347°
2026-04-23 14:09 45.00943 23.34284 17949 ft 230 kts 347°
2026-04-23 14:10 45.02471 23.33593 17950 ft 231 kts 347°
2026-04-23 14:10 45.04010 23.32902 17950 ft 232 kts 347°
2026-04-23 14:10 45.05551 23.32203 17949 ft 233 kts 347°
2026-04-23 14:10 45.07098 23.31502 17957 ft 234 kts 347°
2026-04-23 14:11 45.08628 23.30808 17954 ft 234 kts 347°
2026-04-23 14:11 45.10183 23.30106 17954 ft 234 kts 347°
2026-04-23 14:11 45.11739 23.29403 17952 ft 235 kts 347°
2026-04-23 14:11 45.13294 23.28700 17952 ft 234 kts 347°
2026-04-23 14:12 45.14849 23.27997 17960 ft 235 kts 347°
2026-04-23 14:12 45.16405 23.27294 17959 ft 235 kts 346°
2026-04-23 14:12 45.17966 23.26589 17961 ft 235 kts 346°
2026-04-23 14:12 45.19531 23.25886 17959 ft 236 kts 346°
2026-04-23 14:13 45.21097 23.25178 17955 ft 236 kts 346°
2026-04-23 14:13 45.22660 23.24464 17963 ft 237 kts 346°
2026-04-23 14:13 45.24211 23.23756 17971 ft 237 kts 346°
2026-04-23 14:13 45.25787 23.23042 17969 ft 238 kts 346°
2026-04-23 14:14 45.27369 23.22325 17967 ft 239 kts 346°
2026-04-23 14:14 45.28957 23.21601 17959 ft 239 kts 346°
2026-04-23 14:14 45.30540 23.20880 17969 ft 239 kts 346°
2026-04-23 14:14 45.32126 23.20156 17976 ft 240 kts 346°
2026-04-23 14:15 45.33719 23.19429 17970 ft 241 kts 346°
2026-04-23 14:15 45.35318 23.18699 17956 ft 241 kts 346°
2026-04-23 14:15 45.36912 23.17970 17953 ft 240 kts 346°
2026-04-23 14:15 45.38496 23.17249 17952 ft 238 kts 346°
2026-04-23 14:16 45.40073 23.16528 17984 ft 238 kts 346°
2026-04-23 14:16 45.41657 23.15803 17979 ft 239 kts 346°
2026-04-23 14:16 45.43241 23.15078 17981 ft 240 kts 346°
2026-04-23 14:16 45.44834 23.14348 17980 ft 241 kts 346°
2026-04-23 14:17 45.46427 23.13617 17978 ft 240 kts 346°
2026-04-23 14:17 45.48016 23.12889 17981 ft 240 kts 346°
2026-04-23 14:17 45.49606 23.12159 17980 ft 240 kts 346°
2026-04-23 14:17 45.51196 23.11428 17985 ft 240 kts 346°
2026-04-23 14:18 45.52788 23.10699 17972 ft 240 kts 346°
2026-04-23 14:18 45.54372 23.09970 17986 ft 239 kts 346°
2026-04-23 14:18 45.55959 23.09241 17982 ft 239 kts 346°
2026-04-23 14:18 45.57540 23.08512 17984 ft 238 kts 346°
2026-04-23 14:19 45.59120 23.07787 17983 ft 238 kts 346°
2026-04-23 14:19 45.60680 23.07070 17985 ft 238 kts 346°
2026-04-23 14:19 45.62261 23.06340 17990 ft 239 kts 346°
2026-04-23 14:19 45.63843 23.05612 17983 ft 238 kts 346°
2026-04-23 14:20 45.65418 23.04882 17988 ft 238 kts 346°
2026-04-23 14:20 45.66995 23.04154 17983 ft 238 kts 346°
2026-04-23 14:20 45.68567 23.03426 17984 ft 237 kts 346°
2026-04-23 14:20 45.70139 23.02698 17981 ft 237 kts 346°
2026-04-23 14:21 45.71710 23.01973 17980 ft 237 kts 346°
2026-04-23 14:21 45.73278 23.01246 17983 ft 237 kts 346°
2026-04-23 14:21 45.74846 23.00521 17981 ft 237 kts 346°
2026-04-23 14:21 45.76390 22.99804 17980 ft 236 kts 346°
2026-04-23 14:22 45.77958 22.99078 17982 ft 237 kts 346°
2026-04-23 14:22 45.79522 22.98351 17982 ft 237 kts 346°
2026-04-23 14:22 45.81091 22.97618 17981 ft 236 kts 346°
2026-04-23 14:22 45.82656 22.96893 17984 ft 236 kts 346°
2026-04-23 14:23 45.84223 22.96170 17981 ft 236 kts 346°
2026-04-23 14:23 45.85785 22.95449 17982 ft 236 kts 346°
2026-04-23 14:23 45.87350 22.94715 17977 ft 236 kts 346°
2026-04-23 14:23 45.88909 22.93971 17980 ft 236 kts 346°
2026-04-23 14:24 45.90465 22.93221 17978 ft 236 kts 346°
2026-04-23 14:24 45.92003 22.92482 17977 ft 236 kts 346°
2026-04-23 14:24 45.93558 22.91735 17977 ft 236 kts 346°
2026-04-23 14:24 45.95119 22.90987 17979 ft 236 kts 346°
2026-04-23 14:25 45.96678 22.90243 17975 ft 236 kts 346°
2026-04-23 14:25 45.98240 22.89497 17984 ft 237 kts 346°
2026-04-23 14:25 45.99807 22.88747 17973 ft 237 kts 346°
2026-04-23 14:25 46.01359 22.87999 17974 ft 237 kts 346°
2026-04-23 14:26 46.02945 22.87235 17979 ft 237 kts 346°
2026-04-23 14:26 46.04495 22.86492 17975 ft 238 kts 346°
2026-04-23 14:26 46.06068 22.85736 17970 ft 238 kts 346°
2026-04-23 14:26 46.07635 22.84982 17962 ft 238 kts 346°
2026-04-23 14:27 46.09201 22.84230 17981 ft 237 kts 346°
2026-04-23 14:27 46.10767 22.83473 17978 ft 237 kts 346°
2026-04-23 14:27 46.12331 22.82721 17978 ft 237 kts 346°
2026-04-23 14:27 46.13900 22.81964 17973 ft 237 kts 346°
2026-04-23 14:28 46.15465 22.81206 17970 ft 237 kts 345°
2026-04-23 14:28 46.17028 22.80433 17974 ft 237 kts 345°
2026-04-23 14:28 46.18586 22.79662 17968 ft 237 kts 345°
2026-04-23 14:28 46.20146 22.78904 17975 ft 236 kts 345°
2026-04-23 14:29 46.21703 22.78147 17975 ft 236 kts 345°
2026-04-23 14:29 46.23266 22.77390 17984 ft 237 kts 345°
2026-04-23 14:29 46.24833 22.76630 17975 ft 237 kts 346°
2026-04-23 14:29 46.26380 22.75881 17976 ft 238 kts 345°
2026-04-23 14:30 46.27951 22.75119 17976 ft 238 kts 346°
2026-04-23 14:30 46.29524 22.74355 17977 ft 239 kts 346°
2026-04-23 14:30 46.31103 22.73589 17966 ft 239 kts 346°
2026-04-23 14:30 46.32686 22.72820 17972 ft 240 kts 346°
2026-04-23 14:31 46.34268 22.72052 17964 ft 239 kts 346°
2026-04-23 14:31 46.35844 22.71286 17964 ft 239 kts 346°
2026-04-23 14:31 46.37420 22.70520 17978 ft 239 kts 346°
2026-04-23 14:31 46.38997 22.69753 17975 ft 239 kts 346°
2026-04-23 14:32 46.40579 22.68982 17960 ft 240 kts 346°
2026-04-23 14:32 46.42152 22.68215 17957 ft 238 kts 346°
2026-04-23 14:32 46.43722 22.67447 17961 ft 237 kts 346°
2026-04-23 14:32 46.45264 22.66695 17986 ft 237 kts 346°
2026-04-23 14:33 46.46826 22.65932 17968 ft 237 kts 346°
2026-04-23 14:33 46.48387 22.65168 17988 ft 237 kts 346°
2026-04-23 14:33 46.49956 22.64402 17985 ft 239 kts 346°
2026-04-23 14:33 46.51536 22.63630 17968 ft 240 kts 345°
2026-04-23 14:34 46.53117 22.62857 17965 ft 239 kts 346°
2026-04-23 14:34 46.54697 22.62084 17965 ft 240 kts 345°
2026-04-23 14:34 46.56273 22.61309 17961 ft 239 kts 346°
2026-04-23 14:34 46.57847 22.60538 17977 ft 239 kts 346°
2026-04-23 14:35 46.59426 22.59764 17970 ft 240 kts 346°
2026-04-23 14:35 46.61004 22.58989 17963 ft 239 kts 346°
2026-04-23 14:35 46.62577 22.58214 17963 ft 238 kts 346°
2026-04-23 14:35 46.64145 22.57444 17975 ft 238 kts 346°
2026-04-23 14:36 46.65713 22.56674 17974 ft 238 kts 346°
2026-04-23 14:36 46.67283 22.55900 17962 ft 238 kts 345°
2026-04-23 14:36 46.68849 22.55129 17960 ft 236 kts 345°
2026-04-23 14:36 46.70402 22.54368 17965 ft 235 kts 346°
2026-04-23 14:37 46.71927 22.53616 17972 ft 234 kts 345°
2026-04-23 14:37 46.73471 22.52849 17976 ft 234 kts 345°
2026-04-23 14:37 46.75019 22.52084 17976 ft 234 kts 345°
2026-04-23 14:37 46.76565 22.51319 17965 ft 234 kts 346°
2026-04-23 14:38 46.78109 22.50554 17967 ft 234 kts 345°
2026-04-23 14:38 46.79649 22.49795 17958 ft 234 kts 345°
2026-04-23 14:38 46.81190 22.49032 17974 ft 234 kts 345°
2026-04-23 14:38 46.82731 22.48269 17958 ft 234 kts 346°
2026-04-23 14:39 46.84275 22.47502 17956 ft 234 kts 345°
2026-04-23 14:39 46.85811 22.46742 17970 ft 234 kts 345°
2026-04-23 14:39 46.87353 22.45975 17954 ft 233 kts 346°
2026-04-23 14:39 46.88889 22.45213 17964 ft 233 kts 345°
2026-04-23 14:40 46.90428 22.44449 17961 ft 233 kts 345°
2026-04-23 14:40 46.91961 22.43686 17958 ft 233 kts 345°
2026-04-23 14:40 46.93496 22.42922 17962 ft 233 kts 345°
2026-04-23 14:40 46.95030 22.42158 17959 ft 233 kts 345°
2026-04-23 14:41 46.96561 22.41396 17960 ft 233 kts 345°
2026-04-23 14:41 46.98093 22.40630 17960 ft 232 kts 345°
2026-04-23 14:41 46.99605 22.39881 17958 ft 233 kts 345°
2026-04-23 14:41 47.01140 22.39114 17964 ft 233 kts 345°
2026-04-23 14:42 47.02675 22.38347 17961 ft 233 kts 345°
2026-04-23 14:42 47.04212 22.37580 17953 ft 233 kts 345°
2026-04-23 14:42 47.05748 22.36813 17954 ft 233 kts 345°
2026-04-23 14:42 47.07280 22.36045 17955 ft 232 kts 345°
2026-04-23 14:43 47.08806 22.35280 17954 ft 232 kts 345°
2026-04-23 14:43 47.10311 22.34522 17958 ft 231 kts 345°
2026-04-23 14:43 47.11834 22.33763 17956 ft 231 kts 345°
2026-04-23 14:43 47.13357 22.33002 17960 ft 231 kts 345°
2026-04-23 14:44 47.14882 22.32233 17959 ft 231 kts 345°
2026-04-23 14:44 47.16405 22.31472 17954 ft 231 kts 345°
2026-04-23 14:44 47.17928 22.30707 17956 ft 231 kts 345°
2026-04-23 14:44 47.19453 22.29938 17961 ft 232 kts 345°
2026-04-23 14:45 47.20486 22.29421 17954 ft 232 kts 345°
2026-04-23 14:45 47.22515 22.28401 17952 ft 232 kts 345°
2026-04-23 14:45 47.24042 22.27636 17951 ft 232 kts 345°
2026-04-23 14:45 47.25571 22.26867 17948 ft 232 kts 345°
2026-04-23 14:46 47.26582 22.26357 17948 ft 232 kts 345°
2026-04-23 14:46 47.28109 22.25583 17944 ft 232 kts 345°
2026-04-23 14:46 47.29640 22.24810 17946 ft 232 kts 345°
2026-04-23 14:46 47.31169 22.24040 17951 ft 231 kts 345°
2026-04-23 14:47 47.32691 22.23270 17945 ft 231 kts 345°
2026-04-23 14:47 47.34212 22.22497 17946 ft 231 kts 345°
2026-04-23 14:47 47.35735 22.21724 17941 ft 231 kts 345°
2026-04-23 14:47 47.37239 22.20964 17949 ft 231 kts 345°
2026-04-23 14:48 47.38757 22.20194 17944 ft 231 kts 345°
2026-04-23 14:48 47.40275 22.19425 17943 ft 231 kts 345°
2026-04-23 14:48 47.41799 22.18652 17949 ft 231 kts 345°
2026-04-23 14:48 47.43317 22.17882 17936 ft 231 kts 345°
2026-04-23 14:49 47.44833 22.17111 17939 ft 230 kts 345°
2026-04-23 14:49 47.46349 22.16341 17940 ft 230 kts 345°
2026-04-23 14:49 47.47862 22.15572 17943 ft 230 kts 345°
2026-04-23 14:49 47.49376 22.14801 17943 ft 230 kts 345°
2026-04-23 14:50 47.50884 22.14034 17943 ft 229 kts 345°
2026-04-23 14:50 47.52395 22.13264 17942 ft 229 kts 345°
2026-04-23 14:50 47.53884 22.12500 17944 ft 229 kts 345°
2026-04-23 14:50 47.55392 22.11728 17941 ft 229 kts 345°
2026-04-23 14:51 47.56901 22.10968 17941 ft 229 kts 346°
2026-04-23 14:51 47.58422 22.10279 17935 ft 228 kts 347°
2026-04-23 14:51 47.59955 22.09657 17939 ft 228 kts 348°
2026-04-23 14:51 47.61487 22.09051 17937 ft 228 kts 348°
2026-04-23 14:52 47.62962 22.08449 17937 ft 228 kts 348°
2026-04-23 14:52 47.64518 22.07812 17935 ft 228 kts 348°
2026-04-23 14:52 47.66075 22.07174 17936 ft 228 kts 348°
2026-04-23 14:52 47.67605 22.06548 17936 ft 227 kts 348°
2026-04-23 14:53 47.69115 22.05930 17929 ft 227 kts 348°
2026-04-23 14:53 47.70639 22.05306 17937 ft 227 kts 348°
2026-04-23 14:53 47.72165 22.04680 17929 ft 227 kts 348°
2026-04-23 14:53 47.73690 22.04054 17935 ft 227 kts 348°
2026-04-23 14:54 47.75217 22.03429 17932 ft 227 kts 348°
2026-04-23 14:54 47.76740 22.02802 17933 ft 227 kts 348°
2026-04-23 14:54 47.78263 22.02176 17930 ft 227 kts 348°
2026-04-23 14:54 47.79786 22.01551 17925 ft 227 kts 348°
2026-04-23 14:55 47.81310 22.00923 17929 ft 227 kts 348°
2026-04-23 14:55 47.82833 22.00298 17929 ft 227 kts 348°
2026-04-23 14:55 47.84357 21.99670 17921 ft 227 kts 348°
2026-04-23 14:55 47.85883 21.99041 17931 ft 227 kts 348°
2026-04-23 14:56 47.87409 21.98413 17920 ft 227 kts 348°
2026-04-23 14:56 47.88911 21.97793 17923 ft 227 kts 348°
2026-04-23 14:56 47.90435 21.97163 17917 ft 227 kts 348°
2026-04-23 14:56 47.91961 21.96533 17914 ft 227 kts 348°
2026-04-23 14:57 47.93484 21.95904 17918 ft 227 kts 348°
2026-04-23 14:57 47.95006 21.95273 17916 ft 227 kts 348°
2026-04-23 14:57 47.96533 21.94643 17919 ft 227 kts 347°
2026-04-23 14:57 47.98059 21.94012 17921 ft 227 kts 347°
2026-04-23 14:58 47.99582 21.93381 17913 ft 227 kts 347°
2026-04-23 14:58 48.01107 21.92750 17920 ft 227 kts 347°
2026-04-23 14:58 48.02633 21.92117 17915 ft 227 kts 347°
2026-04-23 14:58 48.04132 21.91494 17915 ft 228 kts 347°
2026-04-23 14:59 48.05684 21.90849 17920 ft 228 kts 347°
2026-04-23 14:59 48.07197 21.90219 17914 ft 228 kts 347°
2026-04-23 14:59 48.08743 21.89576 17915 ft 228 kts 347°
2026-04-23 14:59 48.10217 21.88968 17918 ft 228 kts 347°
2026-04-23 15:00 48.11788 21.88315 17923 ft 229 kts 347°
2026-04-23 15:00 48.13320 21.87675 17918 ft 229 kts 347°
2026-04-23 15:00 48.14824 21.87045 17921 ft 229 kts 347°
2026-04-23 15:00 48.16363 21.86403 17920 ft 228 kts 347°
2026-04-23 15:01 48.17917 21.85755 17923 ft 228 kts 347°
2026-04-23 15:01 48.19405 21.85133 17929 ft 228 kts 347°
2026-04-23 15:01 48.20946 21.84483 17925 ft 228 kts 347°
2026-04-23 15:01 48.22505 21.83815 17928 ft 229 kts 345°
2026-04-23 15:02 48.23979 21.82897 17927 ft 230 kts 338°
2026-04-23 15:02 48.25392 21.81801 17931 ft 231 kts 336°
2026-04-23 15:02 48.26821 21.80652 17931 ft 231 kts 336°
2026-04-23 15:02 48.28211 21.79576 17927 ft 230 kts 337°
2026-04-23 15:03 48.29672 21.78501 17927 ft 230 kts 338°
2026-04-23 15:03 48.31129 21.77450 17928 ft 231 kts 338°
2026-04-23 15:03 48.32565 21.76404 17930 ft 231 kts 338°
2026-04-23 15:03 48.33994 21.75357 17926 ft 230 kts 338°
2026-04-23 15:04 48.35424 21.74311 17934 ft 230 kts 338°
2026-04-23 15:04 48.36896 21.73236 17935 ft 230 kts 338°
2026-04-23 15:04 48.38313 21.72198 17941 ft 230 kts 338°
2026-04-23 15:04 48.39784 21.71123 17936 ft 231 kts 338°
2026-04-23 15:05 48.41202 21.70085 17933 ft 231 kts 338°
2026-04-23 15:05 48.42668 21.69011 17936 ft 231 kts 338°
2026-04-23 15:05 48.44071 21.67983 17929 ft 231 kts 338°
2026-04-23 15:05 48.45539 21.66905 17928 ft 231 kts 338°
2026-04-23 15:06 48.46979 21.65849 17930 ft 230 kts 338°
2026-04-23 15:06 48.48407 21.64802 17941 ft 231 kts 338°
2026-04-23 15:06 48.49874 21.63724 17932 ft 231 kts 338°
2026-04-23 15:06 48.51276 21.62693 17926 ft 231 kts 338°
2026-04-23 15:07 48.52761 21.61600 17933 ft 231 kts 338°
2026-04-23 15:07 48.54199 21.60543 17935 ft 231 kts 338°
2026-04-23 15:07 48.55657 21.59469 17939 ft 231 kts 338°
2026-04-23 15:07 48.57062 21.58433 17933 ft 231 kts 338°
2026-04-23 15:08 48.58543 21.57340 17936 ft 231 kts 338°
2026-04-23 15:08 48.59973 21.56286 17930 ft 231 kts 337°
2026-04-23 15:08 48.61407 21.55223 17942 ft 231 kts 338°
2026-04-23 15:09 48.64323 21.53072 17932 ft 231 kts 337°
2026-04-23 15:09 48.65769 21.52002 17929 ft 231 kts 337°
2026-04-23 15:09 48.67211 21.50932 17933 ft 231 kts 337°
2026-04-23 15:09 48.68626 21.49879 17937 ft 231 kts 337°
2026-04-23 15:10 48.69598 21.49161 17931 ft 231 kts 337°
2026-04-23 15:10 48.71524 21.47727 17945 ft 231 kts 337°
2026-04-23 15:10 48.72969 21.46652 17944 ft 232 kts 337°
2026-04-23 15:10 48.74421 21.45573 17926 ft 233 kts 337°
2026-04-23 15:11 48.75873 21.44492 17943 ft 232 kts 337°
2026-04-23 15:11 48.77329 21.43409 17931 ft 233 kts 337°
2026-04-23 15:11 48.78749 21.42352 17930 ft 233 kts 337°
2026-04-23 15:11 48.80203 21.41270 17944 ft 233 kts 337°
2026-04-23 15:12 48.81693 21.40159 17943 ft 233 kts 337°
2026-04-23 15:12 48.83096 21.39112 17940 ft 233 kts 337°
2026-04-23 15:12 48.84582 21.38004 17943 ft 233 kts 337°
2026-04-23 15:12 48.86039 21.36917 17941 ft 233 kts 337°
2026-04-23 15:13 48.87468 21.35848 17947 ft 233 kts 337°
2026-04-23 15:13 48.88905 21.34774 17925 ft 232 kts 337°
2026-04-23 15:13 48.90398 21.33656 17943 ft 232 kts 337°
2026-04-23 15:13 48.91841 21.32575 17942 ft 232 kts 337°
2026-04-23 15:14 48.93303 21.31480 17941 ft 232 kts 336°
2026-04-23 15:14 48.94715 21.30422 17947 ft 232 kts 336°
2026-04-23 15:14 48.96184 21.29322 17944 ft 233 kts 336°
2026-04-23 15:14 48.97621 21.28244 17942 ft 233 kts 336°
2026-04-23 15:15 48.99079 21.27148 17944 ft 233 kts 336°
2026-04-23 15:15 49.00518 21.26067 17932 ft 233 kts 336°
2026-04-23 15:15 49.01974 21.24971 17941 ft 233 kts 336°
2026-04-23 15:15 49.03458 21.23853 17944 ft 233 kts 336°
2026-04-23 15:16 49.04912 21.22756 17948 ft 233 kts 336°
2026-04-23 15:16 49.06367 21.21661 17947 ft 233 kts 336°
2026-04-23 15:16 49.07800 21.20580 17943 ft 233 kts 336°
2026-04-23 15:16 49.09262 21.19476 17945 ft 234 kts 336°
2026-04-23 15:17 49.10725 21.18367 17945 ft 233 kts 336°
2026-04-23 15:17 49.12194 21.17261 17945 ft 233 kts 336°
2026-04-23 15:17 49.13624 21.16181 17950 ft 233 kts 336°
2026-04-23 15:17 49.15100 21.15063 17955 ft 234 kts 336°
2026-04-23 15:18 49.16548 21.13967 17950 ft 235 kts 336°
2026-04-23 15:18 49.17969 21.12889 17945 ft 235 kts 336°
2026-04-23 15:18 49.19476 21.11747 17949 ft 235 kts 336°
2026-04-23 15:18 49.20948 21.10631 17953 ft 236 kts 336°
2026-04-23 15:19 49.22381 21.09543 17951 ft 236 kts 336°
2026-04-23 15:19 49.23887 21.08398 17951 ft 236 kts 336°
2026-04-23 15:19 49.25358 21.07278 17934 ft 236 kts 336°
2026-04-23 15:19 49.26832 21.06161 17957 ft 236 kts 336°
2026-04-23 15:20 49.27781 21.05439 17958 ft 236 kts 336°
2026-04-23 15:20 49.29770 21.03921 17954 ft 236 kts 335°
2026-04-23 15:20 49.31237 21.02801 17953 ft 236 kts 335°
2026-04-23 15:20 49.32709 21.01674 17946 ft 235 kts 335°
2026-04-23 15:21 49.34162 21.00678 17959 ft 230 kts 347°
2026-04-23 15:21 49.35783 21.00421 17960 ft 230 kts 356°
2026-04-23 15:21 49.37392 21.00316 17963 ft 232 kts 356°
2026-04-23 15:21 49.38982 21.00194 17961 ft 232 kts 355°
2026-04-23 15:22 49.40592 20.99997 17954 ft 232 kts 354°
2026-04-23 15:22 49.42199 20.99740 17958 ft 232 kts 353°
2026-04-23 15:22 49.43808 20.99484 17961 ft 232 kts 354°
2026-04-23 15:22 49.45397 20.99237 17957 ft 232 kts 354°
2026-04-23 15:23 49.46974 20.98986 17955 ft 232 kts 354°
2026-04-23 15:23 49.48601 20.98733 17964 ft 233 kts 354°
2026-04-23 15:23 49.50252 20.98473 17958 ft 233 kts 354°
2026-04-23 15:23 49.51843 20.98220 17957 ft 233 kts 353°
2026-04-23 15:24 49.53426 20.97973 17962 ft 233 kts 353°
2026-04-23 15:24 49.55070 20.97716 17965 ft 232 kts 353°
2026-04-23 15:24 49.56678 20.97462 17963 ft 233 kts 353°
2026-04-23 15:24 49.58288 20.97211 17963 ft 232 kts 353°
2026-04-23 15:25 49.59895 20.96959 17962 ft 232 kts 353°
2026-04-23 15:25 49.61474 20.96708 17967 ft 232 kts 353°
2026-04-23 15:25 49.62565 20.96536 17970 ft 232 kts 353°
2026-04-23 15:25 49.64671 20.96203 17956 ft 232 kts 353°
2026-04-23 15:26 49.66287 20.95950 17967 ft 232 kts 353°
2026-04-23 15:26 49.67899 20.95694 17954 ft 231 kts 353°
2026-04-23 15:26 49.69469 20.95445 17965 ft 231 kts 353°
2026-04-23 15:26 49.71061 20.95195 17970 ft 231 kts 353°
2026-04-23 15:27 49.72673 20.94940 17966 ft 231 kts 353°
2026-04-23 15:27 49.74300 20.94680 17966 ft 231 kts 353°
2026-04-23 15:27 49.75899 20.94428 17958 ft 231 kts 353°
2026-04-23 15:27 49.77503 20.94173 17970 ft 231 kts 353°
2026-04-23 15:28 49.79103 20.93920 17958 ft 231 kts 353°
2026-04-23 15:28 49.80654 20.93673 17970 ft 230 kts 353°
2026-04-23 15:28 49.82256 20.93416 17943 ft 230 kts 353°
2026-04-23 15:28 49.83875 20.93160 17962 ft 230 kts 353°
2026-04-23 15:29 49.85461 20.92906 17956 ft 230 kts 353°
2026-04-23 15:29 49.87080 20.92647 17955 ft 230 kts 354°
2026-04-23 15:29 49.88655 20.92398 17960 ft 230 kts 354°
2026-04-23 15:29 49.90246 20.92144 17969 ft 230 kts 353°
2026-04-23 15:30 49.91811 20.91895 17951 ft 231 kts 354°
2026-04-23 15:30 49.93446 20.91634 17969 ft 231 kts 353°
2026-04-23 15:30 49.95043 20.91379 17954 ft 231 kts 353°
2026-04-23 15:30 49.96609 20.91128 17958 ft 231 kts 353°
2026-04-23 15:31 49.98237 20.90864 17956 ft 231 kts 353°
2026-04-23 15:31 49.99837 20.90610 17970 ft 231 kts 354°
2026-04-23 15:31 50.00895 20.90443 17963 ft 231 kts 354°
2026-04-23 15:31 50.03008 20.90100 17961 ft 230 kts 354°
2026-04-23 15:32 50.04603 20.89846 17968 ft 230 kts 354°
2026-04-23 15:32 50.06145 20.89598 17963 ft 230 kts 354°
2026-04-23 15:32 50.07780 20.89337 17954 ft 230 kts 353°
2026-04-23 15:32 50.08849 20.89161 17965 ft 230 kts 354°
2026-04-23 15:33 50.10982 20.88812 17968 ft 230 kts 353°
2026-04-23 15:33 50.12568 20.88532 17955 ft 229 kts 353°
2026-04-23 15:33 50.14154 20.88246 17967 ft 229 kts 353°
2026-04-23 15:33 50.15739 20.87979 17960 ft 229 kts 353°
2026-04-23 15:34 50.17321 20.87720 17972 ft 229 kts 353°
2026-04-23 15:34 50.18900 20.87464 17961 ft 228 kts 353°
2026-04-23 15:34 50.20467 20.87214 17960 ft 229 kts 354°
2026-04-23 15:34 50.22068 20.86954 17962 ft 229 kts 354°
2026-04-23 15:35 50.23118 20.86780 17965 ft 229 kts 353°
2026-04-23 15:35 50.25216 20.86437 17967 ft 229 kts 354°
2026-04-23 15:35 50.26287 20.86262 17961 ft 229 kts 354°
2026-04-23 15:35 50.28383 20.85919 17959 ft 229 kts 354°
2026-04-23 15:36 50.29456 20.85745 17955 ft 229 kts 354°
2026-04-23 15:36 50.31036 20.85487 17953 ft 229 kts 354°
2026-04-23 15:36 50.32624 20.85230 17960 ft 229 kts 354°
2026-04-23 15:36 50.34188 20.84978 17955 ft 229 kts 354°
2026-04-23 15:37 50.35772 20.84718 17963 ft 229 kts 354°
2026-04-23 15:37 50.37356 20.84459 17952 ft 229 kts 354°
2026-04-23 15:37 50.38939 20.84201 17955 ft 229 kts 354°
2026-04-23 15:37 50.40520 20.83942 17968 ft 228 kts 354°
2026-04-23 15:38 50.42105 20.83685 17964 ft 228 kts 354°
2026-04-23 15:38 50.43685 20.83427 17959 ft 228 kts 354°
2026-04-23 15:38 50.45263 20.83167 17961 ft 228 kts 354°
2026-04-23 15:38 50.46839 20.82906 17964 ft 228 kts 354°
2026-04-23 15:39 50.48417 20.82654 17964 ft 228 kts 354°
2026-04-23 15:39 50.49998 20.82396 17955 ft 228 kts 354°
2026-04-23 15:39 50.51573 20.82137 17952 ft 228 kts 354°
2026-04-23 15:39 50.53149 20.81879 17963 ft 228 kts 354°
2026-04-23 15:40 50.54720 20.81602 17954 ft 227 kts 354°
2026-04-23 15:40 50.56292 20.81309 17962 ft 227 kts 353°
2026-04-23 15:40 50.57817 20.81016 17960 ft 227 kts 353°
2026-04-23 15:40 50.59412 20.80705 17957 ft 227 kts 353°
2026-04-23 15:41 50.60981 20.80396 17963 ft 227 kts 353°
2026-04-23 15:41 50.62547 20.80084 17960 ft 227 kts 353°
2026-04-23 15:41 50.64114 20.79771 17958 ft 227 kts 353°
2026-04-23 15:41 50.65676 20.79457 17955 ft 226 kts 353°
2026-04-23 15:42 50.67235 20.79139 17957 ft 226 kts 353°
2026-04-23 15:42 50.68800 20.78821 17960 ft 226 kts 353°
2026-04-23 15:42 50.70365 20.78501 17960 ft 226 kts 353°
2026-04-23 15:42 50.71924 20.78181 17954 ft 226 kts 353°
2026-04-23 15:43 50.73488 20.77861 17965 ft 226 kts 353°
2026-04-23 15:43 50.75028 20.77544 17961 ft 226 kts 353°
2026-04-23 15:43 50.76592 20.77223 17960 ft 226 kts 353°
2026-04-23 15:43 50.78153 20.76901 17958 ft 226 kts 353°
2026-04-23 15:44 50.79716 20.76578 17957 ft 226 kts 353°
2026-04-23 15:44 50.81275 20.76254 17963 ft 226 kts 353°
2026-04-23 15:44 50.82834 20.75931 17959 ft 226 kts 353°
2026-04-23 15:44 50.84388 20.75608 17956 ft 225 kts 353°
2026-04-23 15:45 50.85942 20.75285 17960 ft 225 kts 353°
2026-04-23 15:45 50.87494 20.74959 17957 ft 225 kts 353°
2026-04-23 15:45 50.89048 20.74632 17958 ft 225 kts 353°
2026-04-23 15:45 50.90598 20.74305 17957 ft 225 kts 353°
2026-04-23 15:46 50.92147 20.73975 17974 ft 224 kts 353°
2026-04-23 15:46 50.93695 20.73647 17956 ft 225 kts 353°
2026-04-23 15:46 50.95246 20.73320 17951 ft 225 kts 353°
2026-04-23 15:46 50.96774 20.72995 17966 ft 224 kts 353°
2026-04-23 15:47 50.98320 20.72668 17954 ft 224 kts 353°
2026-04-23 15:47 50.99865 20.72338 17959 ft 224 kts 353°
2026-04-23 15:47 51.01410 20.72008 17968 ft 224 kts 353°
2026-04-23 15:47 51.02961 20.71677 17972 ft 224 kts 353°
2026-04-23 15:48 51.04511 20.71344 17959 ft 224 kts 353°
2026-04-23 15:48 51.06058 20.71011 17969 ft 224 kts 353°
2026-04-23 15:48 51.07604 20.70677 17965 ft 224 kts 353°
2026-04-23 15:48 51.09155 20.70341 17960 ft 224 kts 353°
2026-04-23 15:49 51.10658 20.70014 17968 ft 224 kts 353°
2026-04-23 15:49 51.12250 20.69668 17953 ft 224 kts 353°
2026-04-23 15:49 51.13776 20.69335 17965 ft 224 kts 353°
2026-04-23 15:49 51.15319 20.68999 17955 ft 223 kts 354°
2026-04-23 15:50 51.16845 20.69121 17966 ft 221 kts
2026-04-23 15:50 51.18339 20.69528 17901 ft 211 kts
2026-04-23 15:50 51.19790 20.69872 17504 ft 211 kts
2026-04-23 15:50 51.21255 20.70077 17106 ft 211 kts
2026-04-23 15:51 51.22726 20.70164 16758 ft 211 kts
2026-04-23 15:51 51.24181 20.70104 16510 ft 210 kts 357°
2026-04-23 15:51 51.25659 20.69914 16255 ft 215 kts 355°
2026-04-23 15:51 51.27165 20.69665 16007 ft 218 kts 358°
2026-04-23 15:52 51.28669 20.70081 15755 ft 225 kts 13°
2026-04-23 15:52 51.30189 20.70816 15501 ft 232 kts 17°
2026-04-23 15:52 51.31711 20.71806 15254 ft 240 kts 21°
2026-04-23 15:52 51.33231 20.72999 14991 ft 247 kts 24°
2026-04-23 15:53 51.34779 20.74273 14680 ft 253 kts 24°
2026-04-23 15:53 51.36353 20.75569 14418 ft 256 kts 24°
2026-04-23 15:53 51.37938 20.76832 14124 ft 259 kts 23°
2026-04-23 15:53 51.39567 20.78108 13813 ft 261 kts 23°
2026-04-23 15:54 51.41186 20.79375 13469 ft 256 kts 22°
2026-04-23 15:54 51.42777 20.80619 13125 ft 253 kts 22°
2026-04-23 15:54 51.44315 20.81826 12784 ft 250 kts 22°
2026-04-23 15:54 51.45905 20.83070 12437 ft 248 kts 22°
2026-04-23 15:55 51.47453 20.84270 12104 ft 246 kts 22°
2026-04-23 15:55 51.48999 20.85448 11768 ft 245 kts 22°
2026-04-23 15:55 51.50536 20.86614 11440 ft 244 kts 22°
2026-04-23 15:55 51.52069 20.87809 11110 ft 244 kts 22°
2026-04-23 15:56 51.53591 20.89003 10795 ft 244 kts 22°
2026-04-23 15:56 51.55114 20.90198 10481 ft 243 kts 22°
2026-04-23 15:56 51.56635 20.91399 10169 ft 243 kts 22°
2026-04-23 15:56 51.58154 20.92594 9841 ft 244 kts 22°
2026-04-23 15:57 51.59682 20.93794 9506 ft 243 kts 22°
2026-04-23 15:57 51.61185 20.94982 9168 ft 244 kts 22°
2026-04-23 15:57 51.62711 20.96185 8829 ft 243 kts 22°
2026-04-23 15:57 51.64233 20.97386 8489 ft 244 kts 22°
2026-04-23 15:58 51.65757 20.98592 8157 ft 244 kts 22°
2026-04-23 15:58 51.67280 20.99795 7824 ft 243 kts 22°
2026-04-23 15:58 51.68792 21.00994 7491 ft 241 kts 22°
2026-04-23 15:58 51.70292 21.02183 7171 ft 240 kts 22°
2026-04-23 15:59 51.71788 21.03367 6852 ft 239 kts 22°
2026-04-23 15:59 51.73280 21.04556 6538 ft 239 kts 23°
2026-04-23 15:59 51.74768 21.05738 6201 ft 238 kts 22°
2026-04-23 15:59 51.76241 21.06922 5856 ft 235 kts 23°
2026-04-23 16:00 51.77675 21.08089 5533 ft 233 kts 23°
2026-04-23 16:00 51.79119 21.09261 5223 ft 231 kts 22°
2026-04-23 16:00 51.80539 21.10423 4972 ft 227 kts 22°
2026-04-23 16:00 51.81945 21.11551 4715 ft 224 kts 22°
2026-04-23 16:01 51.83332 21.12656 4443 ft 221 kts 22°
2026-04-23 16:01 51.84703 21.13754 4204 ft 218 kts 21°
2026-04-23 16:01 51.86044 21.14828 4088 ft 211 kts 21°
2026-04-23 16:01 51.87333 21.15853 4050 ft 203 kts 21°
2026-04-23 16:02 51.88583 21.16857 4031 ft 198 kts 21°
2026-04-23 16:02 51.89825 21.17734 4006 ft 192 kts 16°
2026-04-23 16:02 51.91094 21.17963 4006 ft 182 kts 346°
2026-04-23 16:02 51.92325 21.17402 3912 ft 185 kts 343°
2026-04-23 16:03 51.93538 21.16704 3823 ft 189 kts 338°
2026-04-23 16:03 51.94737 21.15798 3715 ft 190 kts 332°
2026-04-23 16:03 51.95889 21.14715 3600 ft 191 kts 328°
2026-04-23 16:03 51.97036 21.13610 3479 ft 192 kts 330°
2026-04-23 16:04 51.98211 21.12599 3356 ft 190 kts 332°
2026-04-23 16:04 51.99389 21.11642 3243 ft 189 kts 332°
2026-04-23 16:04 52.00550 21.10674 3155 ft 187 kts 331°
2026-04-23 16:04 52.01691 21.09690 3091 ft 185 kts 331°
2026-04-23 16:05 52.02439 21.09040 3077 ft 183 kts 331°
2026-04-23 16:05 52.03923 21.07743 2967 ft 180 kts 331°
2026-04-23 16:05 52.05017 21.06790 2760 ft 174 kts 331°
2026-04-23 16:05 52.06040 21.05900 2532 ft 158 kts 331°
2026-04-23 16:06 52.06967 21.05111 2334 ft 143 kts 332°
2026-04-23 16:06 52.07823 21.04360 2139 ft 136 kts 330°
2026-04-23 16:06 52.08636 21.03636 1961 ft 131 kts 331°
2026-04-23 16:06 52.09428 21.02957 1784 ft 129 kts 331°
2026-04-23 16:07 52.10181 21.02307 1621 ft 116 kts 332°
2026-04-23 16:07 52.10863 21.01704 1473 ft 109 kts 331°
2026-04-23 16:07 52.11531 21.01121 1316 ft 108 kts 332°
2026-04-23 16:07 52.12193 21.00550 1154 ft 107 kts 331°
2026-04-23 16:08 52.12854 20.99975 1006 ft 109 kts 330°
2026-04-23 16:08 52.13515 20.99398 858 ft 110 kts 329°
2026-04-23 16:08 52.14193 20.98772 726 ft 110 kts 330°
2026-04-23 16:08 52.14859 20.98196 524 ft 105 kts 330°
2026-04-23 16:09 52.15465 20.97669 390 ft 94 kts 330°
2026-04-23 16:09 52.15979 20.97212 336 ft 71 kts 332°
2026-04-23 16:09 52.16269 20.96954 335 ft 37 kts 332°
2026-04-23 16:09 52.16463 20.96795 334 ft 27 kts 334°
2026-04-23 16:10 52.16602 20.96677 335 ft 19 kts 332°
2026-04-23 16:10 52.16729 20.96568 334 ft 21 kts 329°
2026-04-23 16:10 52.16868 20.96455 333 ft 23 kts 333°
2026-04-23 16:10 52.17016 20.96327 331 ft 25 kts 332°
2026-04-23 16:11 52.17180 20.96245 331 ft 24 kts 352°
2026-04-23 16:11 52.17335 20.96245 333 ft 21 kts
2026-04-23 16:11 52.17417 20.96354 334 ft 16 kts 60°
2026-04-23 16:11 52.17471 20.96518 334 ft 17 kts 64°
2026-04-23 16:12 52.17544 20.96673 335 ft 17 kts 58°
2026-04-23 16:12 52.17610 20.96847 334 ft 19 kts 57°
2026-04-23 16:12 52.17681 20.97029 332 ft 18 kts 69°
2026-04-23 16:12 52.17599 20.97143 333 ft 12 kts 188°
2026-04-23 16:13 52.17591 20.97094 335 ft 5 kts 245°
2026-04-23 16:13 52.17581 20.97065 335 ft 0 kts 244°